Theta_e
313 314 314 315 315 315 315 315 315 314 314 313 312 311 310 312 312 314 314 314 313 313 311 311 311 310 310 309 309 309 309 309 310 309 309 308 307 308 308 307 306 306 305
312 313 314 314 314 314 314 315 314 314 314 313 312 312 311 312 313 314 314 313 313 312 312 311 311 310 310 310 309 308 308 308 308 309 309 308 308 308 307 307 306 305 304
312 312 313 313 314 314 314 314 314 313 313 312 312 311 311 312 313 314 314 314 312 312 312 311 311 310 310 310 309 309 308 307 307 307 307 308 307 307 307 306 305 303 303
312 312 312 313 313 313 313 313 313 313 312 312 312 312 311 312 313 314 313 313 313 312 312 311 311 310 310 310 309 308 308 307 307 307 307 308 308 308 306 305 304 303 302
311 312 312 312 312 313 313 313 313 312 312 312 312 312 311 312 312 313 313 313 313 312 311 311 310 310 309 309 309 308 308 307 308 308 308 309 308 308 307 305 304 302 301
311 311 312 312 312 312 312 312 312 312 312 312 312 312 312 311 311 311 313 313 313 313 312 311 309 308 308 307 306 307 308 309 309 309 309 309 308 307 305 304 301 299 301
311 311 312 312 312 312 312 312 312 312 312 312 312 312 312 312 311 311 312 313 313 313 312 311 309 307 307 307 306 306 305 306 308 310 309 308 307 305 304 301 299 299 298
310 311 312 312 312 312 312 312 313 313 313 313 313 312 312 313 311 311 311 312 313 313 312 311 310 308 307 308 309 309 309 309 309 308 307 307 305 304 302 301 298 296 295
311 311 312 312 312 312 313 313 313 313 313 313 313 313 313 313 312 311 311 311 313 312 311 310 310 310 309 307 307 307 307 307 305 305 304 303 302 300 299 297 296 295 295
312 312 311 311 312 312 313 313 313 313 313 313 313 313 313 313 313 311 311 312 313 312 311 310 309 309 309 307 306 307 307 307 305 302 302 300 300 296 295 293 293 294 294
310 311 311 311 311 312 312 313 313 313 313 313 313 313 312 312 313 312 311 312 313 313 312 310 309 308 308 306 305 308 308 307 304 303 301 300 297 295 293 292 292 292 293
310 310 311 312 311 310 311 313 313 313 313 313 313 313 312 312 311 312 311 310 313 313 312 311 309 309 308 306 304 307 306 303 303 302 301 299 297 294 293 292 292 291 291
309 310 311 312 311 310 311 311 312 312 312 312 313 313 313 312 311 310 311 310 310 312 313 311 309 309 307 304 304 306 303 302 302 301 300 298 296 294 292 291 291 291 290
307 310 311 311 312 311 310 310 311 311 312 312 312 312 312 312 311 311 310 310 310 311 312 309 308 307 305 305 306 304 303 303 301 300 298 296 294 292 291 292 292 291 291
306 308 310 311 312 312 312 311 311 311 311 312 312 312 312 312 311 310 310 311 312 310 309 305 305 305 305 304 303 303 303 300 298 297 296 294 293 292 292 292 291 291 290
306 307 309 310 311 312 312 312 311 310 309 308 308 310 311 310 311 310 309 310 312 309 307 306 306 305 305 303 302 303 301 298 297 296 294 294 293 292 292 291 291 290 290
305 306 307 308 310 311 311 312 313 313 311 309 308 307 307 308 309 308 308 308 311 308 309 307 306 305 304 302 301 301 299 298 296 295 294 293 292 292 291 291 291 290 290
305 305 306 308 308 310 310 311 311 312 313 313 311 309 308 307 307 307 307 307 307 307 309 307 306 304 303 302 301 300 298 296 295 294 293 293 292 291 291 291 290 290 290
305 306 306 307 308 308 308 309 310 310 311 311 311 308 308 308 308 307 307 308 307 306 309 307 306 304 303 301 300 298 297 295 294 293 293 292 292 291 291 290 290 290 289
305 306 306 306 307 308 308 308 309 309 310 310 310 310 309 307 308 307 307 308 308 307 308 306 304 302 302 300 298 296 295 294 293 293 293 292 291 291 291 290 290 290 289
305 305 306 307 307 307 308 308 309 309 310 310 309 309 308 308 309 307 306 307 308 307 306 304 302 301 299 298 296 295 294 293 293 293 292 292 291 290 290 290 290 289 289
304 305 306 307 307 307 307 308 308 308 309 308 308 307 305 306 308 307 306 306 306 306 303 302 299 299 298 297 296 294 294 293 293 292 292 291 291 290 290 290 290 289 289
304 305 306 306 306 306 306 307 307 307 308 308 307 306 304 305 306 306 305 303 302 301 300 299 298 297 296 296 295 294 293 293 292 292 291 290 291 290 290 290 290 290 289
304 305 305 306 306 307 307 306 307 306 306 306 306 305 304 305 304 303 302 301 299 298 298 297 297 297 296 294 294 293 293 292 291 291 291 291 290 290 290 290 290 290 290
304 304 305 305 306 306 306 305 306 306 305 304 304 303 304 304 302 301 300 299 298 297 296 296 297 296 294 293 293 293 292 292 292 292 290 290 290 290 290 290 290 290 289
302 303 303 304 304 304 304 303 303 303 302 302 302 302 303 302 301 299 299 298 296 295 296 295 294 294 293 293 293 294 293 292 291 291 290 290 289 289 290 289 289 289 289
Wind_Speed
26 28 29 30 31 30 29 28 28 25 25 26 25 25 24 22 21 21 20 18 20 18 17 17 17 15 14 14 13 13 14 14 13 15 11 11 14 12 14 13 14 14 15
25 26 29 28 28 30 31 29 27 28 27 27 26 26 26 24 23 23 23 21 22 22 20 18 18 16 17 15 15 16 16 15 16 15 13 12 12 11 13 15 14 14 15
23 25 27 28 29 30 31 30 28 28 28 28 28 29 28 27 25 25 24 23 23 22 21 21 19 19 19 17 18 16 16 15 15 15 14 12 11 11 12 14 14 13 13
23 26 27 30 32 34 32 30 30 30 30 31 32 31 33 30 29 27 26 25 23 22 21 21 21 22 21 20 18 18 16 15 14 14 15 14 12 10 10 14 16 13 15
22 25 29 31 31 30 30 31 30 30 31 31 30 32 34 33 35 32 30 28 25 23 22 22 22 23 23 21 19 18 17 16 14 14 15 13 12 10 10 11 13 15 16
20 24 26 26 29 32 32 32 32 32 32 32 33 34 34 38 42 43 39 31 27 25 25 24 22 27 27 25 25 21 18 17 16 15 14 13 12 9 8 11 9 11 6
17 22 24 24 27 29 33 33 33 35 34 34 35 35 37 41 45 47 45 38 31 29 27 24 23 23 27 24 26 24 24 23 21 14 15 14 12 9 9 10 9 10 12
16 19 21 24 27 27 28 29 30 30 33 34 35 36 38 38 45 49 48 45 34 31 30 29 26 24 26 25 21 21 20 19 20 18 16 13 11 9 8 9 9 11 12
18 17 18 19 23 25 27 29 31 30 29 31 32 32 34 37 42 49 48 42 36 35 34 30 29 26 27 30 23 21 19 18 18 20 17 15 15 12 10 8 8 8 9
23 21 19 18 21 24 25 27 27 29 30 29 31 33 37 38 38 46 50 38 35 33 30 31 35 32 29 31 28 22 21 20 16 13 12 13 13 11 12 9 7 8 7
27 23 21 19 19 21 22 23 23 25 25 28 30 32 35 37 37 41 48 42 37 34 32 31 32 38 36 33 32 23 21 15 16 14 13 12 11 10 9 8 8 8 9
29 25 23 19 17 16 18 19 20 21 23 24 25 26 30 34 40 42 47 52 43 39 37 33 35 39 40 34 32 23 21 16 13 14 14 14 13 12 10 9 9 9 10
31 28 24 21 16 13 15 16 17 18 20 20 20 21 22 23 28 37 42 49 52 43 35 34 34 38 38 33 31 25 21 17 16 16 16 14 13 11 9 8 8 9 10
32 30 26 22 19 15 11 12 15 17 18 20 19 19 19 20 22 23 32 37 44 42 32 29 34 33 35 27 25 24 20 20 19 17 14 12 11 10 9 8 8 9 10
31 31 28 21 19 18 15 14 15 18 20 19 21 20 19 20 24 28 28 31 34 36 29 24 26 27 26 24 23 23 22 20 19 16 14 14 13 11 10 9 9 9 9
29 28 28 26 22 18 17 18 19 22 24 26 29 24 20 25 20 25 31 32 34 35 32 27 27 28 28 26 25 24 23 22 20 17 16 15 14 13 11 10 10 10 10
28 30 29 29 23 21 19 18 17 14 17 22 27 31 32 29 19 25 23 33 34 37 33 29 29 29 28 27 25 24 24 22 19 19 18 16 14 13 11 11 11 10 11
31 29 29 27 26 23 21 20 19 17 14 15 15 23 26 30 28 23 22 27 26 40 31 29 28 28 28 27 25 24 22 20 21 19 18 17 15 13 12 12 12 11 10
31 27 26 27 28 27 24 22 19 19 18 17 14 14 18 23 22 24 25 29 27 30 31 26 27 27 27 26 24 23 22 21 21 20 18 17 15 14 14 13 12 11 9
33 32 32 28 26 26 24 22 21 20 18 17 16 16 10 12 15 20 27 27 26 27 30 26 25 25 26 25 24 23 22 22 21 20 18 17 17 16 14 14 13 11 10
30 33 33 26 25 24 25 23 23 20 19 18 19 16 18 18 17 21 25 27 24 24 26 26 24 24 25 26 25 25 22 21 20 19 18 16 16 15 14 13 12 10 11
30 32 31 26 25 24 23 22 19 21 21 19 18 15 20 21 16 18 21 22 20 19 19 20 21 25 28 29 28 24 21 19 19 18 18 18 16 15 14 14 13 13 12
31 31 29 29 26 26 22 21 22 21 21 21 18 17 17 19 18 18 19 19 19 18 17 19 21 22 22 23 25 25 23 20 20 17 16 17 15 15 15 16 14 13 12
28 31 31 30 28 25 22 20 22 23 21 20 19 17 16 18 19 18 18 18 18 18 18 18 19 23 22 21 21 21 18 16 15 15 16 15 15 15 15 15 14 14 13
26 27 27 26 24 23 21 19 20 20 18 18 16 15 14 16 17 17 17 17 18 19 19 20 22 21 20 20 19 17 16 14 13 14 16 14 14 14 15 14 14 13 13
25 26 24 22 21 20 19 12 12 12 9 9 12 14 16 16 17 17 17 18 18 20 23 22 21 21 20 18 17 15 13 13 15 15 15 16 15 14 14 15 16 16 16
Wind_Direction
222 220 220 219 218 220 221 222 221 221 221 221 221 222 222 220 219 218 219 216 215 216 215 213 214 211 212 216 218 222 228 232 251 274 280 295 301 307 313 315 316 311 311
224 224 224 223 220 219 221 222 220 220 221 221 220 222 222 221 219 217 218 216 215 215 214 212 213 210 214 215 215 219 224 230 242 265 277 282 285 296 302 310 310 313 311
221 224 225 223 222 223 223 222 220 220 220 219 218 220 219 220 219 219 220 219 218 218 216 213 212 209 213 214 216 219 223 228 236 251 266 275 281 293 301 306 307 313 313
223 221 224 225 222 221 222 221 220 219 219 219 219 219 220 219 220 218 218 218 220 219 219 217 215 212 214 214 215 219 220 222 228 239 254 266 272 281 290 301 311 315 314
236 226 222 225 225 225 224 222 222 221 222 221 219 220 220 218 219 216 216 217 217 218 219 220 219 218 218 215 212 216 215 218 223 232 247 257 261 274 281 295 294 309 316
249 242 240 232 222 221 222 221 220 219 221 221 219 218 216 219 223 224 221 215 217 217 218 221 221 224 226 226 226 220 218 215 221 229 243 251 263 277 276 281 291 311 321
264 256 248 240 235 227 223 221 218 218 221 220 219 216 218 221 227 228 226 219 216 217 218 217 216 221 220 220 224 227 228 225 224 233 243 251 264 264 262 276 276 286 286
275 266 258 247 238 234 233 231 229 227 222 219 220 220 221 223 228 231 229 222 219 221 219 216 215 214 215 210 209 215 221 226 227 228 236 250 255 254 255 267 280 288 295
301 282 270 262 255 248 236 226 224 226 227 226 225 223 223 226 228 232 228 220 218 220 220 216 214 213 214 213 205 209 215 219 220 222 230 240 245 244 244 258 273 293 310
327 310 292 271 259 253 246 238 230 224 225 223 224 224 225 227 225 230 229 213 214 215 215 216 219 213 213 216 207 206 210 212 208 210 217 226 234 238 253 246 257 264 279
324 314 305 288 268 257 255 244 239 234 228 222 222 224 226 227 226 228 231 214 214 213 211 208 212 214 217 216 212 207 211 204 204 206 210 213 219 223 231 234 235 240 254
328 318 311 301 286 270 256 249 242 235 232 232 231 232 229 226 227 225 227 227 215 212 211 209 209 215 213 213 211 204 204 196 195 201 206 214 219 221 224 226 235 245 254
323 322 316 309 297 278 261 254 244 238 238 240 236 237 237 232 232 230 230 230 221 214 216 210 203 214 207 206 206 203 204 200 203 205 213 219 218 217 216 226 242 254 262
314 317 316 308 301 290 265 246 243 237 233 235 235 235 237 233 229 226 223 222 221 218 218 203 202 204 196 190 194 201 203 205 205 209 215 215 204 203 214 222 235 247 263
309 309 309 305 300 293 279 257 243 242 235 235 234 233 231 231 228 219 210 206 206 207 197 177 170 171 177 185 193 197 197 200 202 207 208 203 205 209 216 219 230 243 259
303 303 303 304 299 291 286 284 274 265 254 249 245 245 249 246 244 236 222 220 207 195 186 183 177 179 183 185 188 191 197 200 203 202 204 205 205 209 213 216 226 234 251
293 293 296 298 295 292 288 282 285 284 282 263 257 251 248 248 256 245 239 220 208 193 196 191 186 185 187 188 188 192 197 201 198 199 202 202 204 209 205 218 224 235 244
286 282 285 288 290 285 282 279 275 272 276 273 273 252 248 247 246 247 238 214 189 195 207 198 190 186 188 187 187 190 193 191 194 196 198 201 202 202 206 216 223 230 243
284 285 282 285 289 283 280 276 267 264 260 265 268 263 248 236 236 235 227 197 196 203 215 203 194 186 185 183 184 186 186 188 190 191 196 198 199 199 211 215 223 229 241
278 276 275 273 276 279 277 271 265 253 253 252 252 250 228 201 200 202 201 208 209 205 204 197 189 182 182 178 177 177 178 182 185 190 195 198 197 199 208 212 218 227 236
267 273 272 266 263 267 271 265 265 260 253 249 246 243 219 209 214 202 200 209 216 208 203 194 183 177 176 175 175 176 180 183 187 190 192 196 198 201 208 212 217 228 240
261 264 268 263 263 264 261 266 265 265 259 252 252 241 216 210 220 211 204 205 208 206 199 188 178 179 183 183 183 178 177 182 185 188 192 191 197 202 207 210 215 227 238
264 263 263 269 266 262 259 264 262 254 256 251 242 226 206 210 211 206 199 195 191 187 186 184 179 175 182 185 191 191 183 184 190 189 191 192 200 200 209 215 220 227 232
258 259 264 265 266 259 260 262 263 256 251 248 233 219 215 208 204 198 191 187 184 178 175 172 174 178 175 178 183 188 187 185 191 195 201 197 204 207 215 219 228 236 241
263 259 261 263 265 260 255 248 253 250 240 235 234 216 206 202 195 195 186 179 172 162 160 163 167 169 174 176 177 180 184 189 195 208 209 207 211 214 220 226 234 242 247
272 268 266 266 262 261 258 247 256 262 237 232 236 216 184 184 185 181 172 163 156 154 155 156 157 160 161 163 170 180 187 195 204 209 212 218 217 220 227 231 236 238 241